If you wish to contribute or participate in the discussions about articles you are invited to join SKYbrary as a registered user

 Actions

Albert-Bray Airport

From SKYbrary Wiki

LFAQ
Airport
ICAO: LFAQ
Summary
Name Albert-Bray Airport
Region Europe
Territory France FR.gif
Location , Picardie
Serving Albert
Elevation 110.947 m
364 ft
364 ft110.947 m
Type small airport
Coordinates 49° 58' 17.51" N, 2° 41' 51.58" E
Runways
Designator Length Width Surface ROPS
9/27 1170 m3,838.583 ft
25 m82.021 ft
ASP /


METAR
Observation LFAQ 111030Z AUTO 04011KT CAVOK 09/02 Q1022 NOSIG
Station BRAY
Date/Time 11 April 2019 10:30:00
Wind direction 40°
Wind speed 11 kts
Lowest cloud amount clouds and visibility OK
Temperature 9°C
Dew point 2°C
Humidity 61%
QNH 1022 hPa
Weather condition n/a